Location: Chuathbaluk
(61.5726°N, 159.2454°W)
Time: 11:03:28
(UTC+00:00)

Oscar 11 - Visible Passes

Search period start: 23 January 2021 00:00
Search period end: 02 February 2021 00:00
Orbit: 613 x 625 km, 97.6° (Epoch: 22 January)

Date Brightness Start Highest point End Pass type
(mag) Time Alt. Az. Time Alt. Az. Time Alt. Az.
23 Jan 7.7 03:51:27 10° S 03:55:46 60° WSW 04:00:07 10° NNW visible
23 Jan 10.4 05:30:44 10° WSW 05:32:50 13° W 05:34:57 10° NW visible
23 Jan 10.2 15:28:38 10° NE 15:31:13 15° E 15:33:48 10° ESE visible
23 Jan 7.4 17:03:48 10° NNE 17:08:10 71° ESE 17:12:28 10° S visible
24 Jan 8.4 04:08:39 10° S 04:12:51 45° W 04:17:04 10° NNW visible
24 Jan 9.8 15:45:13 10° NE 15:48:26 20° E 15:51:38 10° SE visible
24 Jan 7.0 17:20:48 10° NNE 17:25:11 88° WNW 17:29:31 10° SSW visible
25 Jan 8.9 04:25:58 10° SSW 04:29:57 34° W 04:33:57 10° NNW visible
25 Jan 9.4 16:01:58 10° NNE 16:05:37 26° E 16:09:15 10° SSE visible
25 Jan 7.0 17:37:50 10° NNE 17:42:10 67° WNW 17:46:27 10° SSW visible
26 Jan 9.5 04:43:25 10° SSW 04:47:05 26° W 04:50:47 10° NNW visible
26 Jan 8.9 16:18:47 10° NNE 16:22:45 34° E 16:26:41 10° SSE visible
26 Jan 7.2 17:54:53 10° N 17:59:06 51° WNW 18:03:17 10° SW visible
27 Jan 7.1 03:23:10 10° SSE 03:27:32 87° ENE 03:31:56 10° NNW visible
27 Jan 9.9 05:01:01 10° SW 05:04:16 20° W 05:07:32 10° NW visible
27 Jan 8.3 16:35:41 10° NNE 16:39:52 44° E 16:44:01 10° S visible
27 Jan 7.5 18:11:57 10° N 18:16:01 39° WNW 18:20:03 10° SW visible
28 Jan 7.4 03:40:12 10° S 03:44:33 71° WSW 03:48:55 10° NNW visible
28 Jan 10.3 05:18:51 10° WSW 05:21:30 16° W 05:24:07 10° NW visible
28 Jan 10.4 15:17:50 10° NE 15:19:52 13° E 15:21:52 10° ESE visible
28 Jan 7.7 16:52:38 10° NNE 16:56:56 59° ESE 17:01:12 10° S visible
29 Jan 8.0 03:57:20 10° S 04:01:36 53° W 04:05:53 10° NNW visible
29 Jan 10.5 05:37:09 10° W 05:38:45 12° W 05:40:21 10° WNW visible
29 Jan 10.0 15:34:14 10° NE 15:37:06 17° E 15:39:57 10° SE visible
29 Jan 7.2 17:09:36 10° NNE 17:13:58 79° ESE 17:18:17 10° SSW visible
30 Jan 8.6 04:14:34 10° SSW 04:18:41 40° W 04:22:49 10° NNW visible
30 Jan 9.7 15:50:54 10° NE 15:54:19 22° E 15:57:41 10° SE visible
30 Jan 7.0 17:26:37 10° NNE 17:30:58 79° WNW 17:35:17 10° SSW visible
31 Jan 9.2 04:31:56 10° SSW 04:35:48 31° W 04:39:41 10° NNW visible
31 Jan 9.2 16:07:41 10° NNE 16:11:28 28° E 16:15:13 10° SSE visible
31 Jan 7.1 17:43:39 10° NNE 17:47:56 60° WNW 17:52:11 10° SW visible
01 Feb 9.7 04:49:26 10° SW 04:52:57 24° W 04:56:29 10° NW visible
01 Feb 8.7 16:24:32 10° NNE 16:28:36 37° E 16:32:37 10° SSE visible
01 Feb 7.3 18:00:42 10° N 18:04:52 46° WNW 18:08:59 10° SW visible
